Weather in Mayachnoye

Russia / Astrakhan Oblast     46°01′48″N   47°43′00″E
temp.,
°C
wind,
m/s
gust,
m/s
humid.,
%
clouds,
%
prec.,
mm/h
press.,
hPa
HPBL,
m
9 march, tue
tue901:00+1ssw61083100 0.0 1017325
04:000ssw599494 0.0 1016257
07:00−1sw5109491 0.0 1016289
10:00+2sw687993 0.0 1016407
13:00+5wsw696168 0.0 1015918
16:00+6w9125684 0.1 10141083
19:00+4wsw7116897 0.0 1014434
22:00+2wnw5107597 0.1 1016402
10 march, wed
wed1001:00+1wnw4773100 0.0 1016239
04:000w477585 0.0 1017157
07:00−1w6117557 0.0 1019330
10:00−1nw787478 0.0 1021868
13:000nw794891 0.0 10221549
16:00+1nw794458 0.0 10221727
19:00−1nnw575133 0.0 1023834
22:00−2n465067 0.0 1024699
11 march, thu
thu1101:00−3n3450100 0.0 1024440
04:00−4ne4552100 0.0 1024418
07:00−5nne4655100 0.0 1025505
10:00−5nne5640100 0.0 1025711
13:00−3ne5530100 0.0 10251020
16:00−2ne5634100 0.0 10241196
19:00−4ne6739100 0.0 1024892
22:00−5ne6838100 0.0 1025755
12 march, fri
fri1201:00−6ne7938100 0.0 1025823
04:00−7ne7840100 0.0 1025972
07:00−7ene6845100 0.0 1027991
10:00−7ne6846100 0.0 1029873
13:00−5ne6738100 0.0 10301059
16:00−4ne5632100 0.0 10301205
19:00−6ne5630100 0.0 1031916
22:00−6ene4634100 0.0 1032691
13 march, sat
sat1301:00−7ene353799 0.0 1033543
04:00−8ne244484 0.0 1033179
07:00−8ene355075 0.0 1034217
10:00−6ene454338 0.0 1035658
13:00−3e34310 0.0 10351103
16:00−1ese44310 0.0 10331382
19:00−4se46510 0.0 1032316
22:00−5se35706 0.0 1033252